Kezdőlap
METAR-TAF:

METAR-TAF

Repülőterek :

Sheldon Municipal Airport

Sheldon, Iowa, Amerikai Egyesült Államok

földrajzi szélesség: 43-13N, földrajzi hosszúság: 095-50W, magasság: 432 m

Jelenlegi meteorológiai megfigyelések

A jelentés 9 perccel ezelõtt készült, 10:15 UTC
Keleti szél 11 kt
Hőmérséklet 14°C
Páratartalom 41%
Légköri nyomás 1014 hPa
Látótávolság: 16.1 km
Derült ég

METAR: KSHL 171015Z AUTO 09011KT 10SM CLR 14/01 A2995 RMK AO2

Idő: 05:24 (10:24 UTC)


TAF: hiányzik

Meteorológiai megfigyelések és előrejelzések több, mint 4000 repülőtéren (METAR és TAF jelentéseket).

A térképen piros és sárga pontok jelzik az elérhető meteorológiai állomásokat.

Mozgassa az egeret a pont fölött, hogy megjelenjen az állomás neve.

Azután kattintson az időjárási megfigyelések és előrejelzések megtekintéséhez.

A térkép megváltoztatása: kattintson a fekete keresztel jelölt zöld gombra ráközelítéshez, a vonallal jelölt zöld gombra távolításhoz, vagy a zöld nyilakra a szomszédos térképek eléréséhez.


METAR-TAF: